Wind_Speed
26 26 27 27 26 26 24 24 24 24 25 25 24 24 23 22 22 22 21 21 20 20 19 19 18 18 18 18 17 18 18 18 17 17 17 17 17 17 16 16 16 16 17
28 28 28 28 28 28 28 27 26 25 26 25 25 25 25 24 23 22 21 21 21 20 19 19 19 18 18 18 18 18 19 19 19 18 18 18 18 18 18 18 17 18 18
29 29 29 29 30 30 29 29 27 26 26 26 25 25 24 23 23 22 22 21 21 21 21 20 19 18 18 18 18 18 18 18 19 19 19 18 18 18 18 18 18 19 19
30 30 30 30 30 30 30 29 29 28 27 26 25 25 24 24 23 22 22 21 22 21 21 20 20 19 19 18 18 18 18 19 19 19 20 20 19 19 19 19 19 20 20
31 31 31 31 31 31 31 30 29 29 27 26 25 25 25 24 23 22 23 22 22 21 20 20 20 20 19 19 19 19 20 20 20 20 21 21 21 21 21 21 21 21 21
31 31 30 30 31 31 30 29 28 28 27 26 24 25 25 24 24 23 23 23 22 21 21 20 20 20 20 19 20 20 21 21 21 21 22 22 22 22 22 22 22 21 21
31 31 31 31 31 31 31 31 29 28 27 26 25 24 24 25 24 22 21 21 21 21 21 21 21 20 20 19 19 20 21 21 22 22 22 22 22 22 23 23 22 22 22
31 31 32 32 32 31 31 31 30 29 28 26 26 25 25 24 24 23 22 22 21 21 21 21 22 21 20 20 20 20 20 21 21 22 22 22 22 22 22 22 23 23 22
31 32 32 32 32 32 31 30 29 28 27 27 27 26 26 25 25 24 23 22 21 20 20 20 21 21 20 20 20 20 20 21 21 22 22 22 22 22 22 23 22 22 22
30 31 31 32 31 31 31 30 29 28 28 27 26 25 25 25 25 24 23 22 22 21 21 21 21 21 20 20 21 21 21 21 22 22 22 22 22 23 23 23 23 22 22
31 30 30 30 30 30 30 29 28 28 28 27 26 26 25 25 26 25 24 23 23 23 21 21 20 20 20 20 20 20 21 22 22 22 22 23 23 23 24 23 23 23 23
29 29 29 29 29 30 30 29 29 29 28 27 28 27 27 26 26 26 26 25 24 23 22 21 21 21 20 20 20 21 21 22 22 22 22 23 23 23 24 24 23 24 23
28 29 29 29 30 30 30 28 29 29 29 29 28 27 27 27 27 27 26 25 24 24 24 23 22 22 22 22 22 22 22 23 23 23 23 23 24 24 24 24 23 24 24
26 27 28 29 29 28 28 28 28 28 29 29 29 28 27 27 28 28 27 26 25 25 25 24 24 24 24 23 23 24 24 24 24 24 25 25 25 25 25 24 24 24 24
25 25 26 26 25 25 25 25 26 26 26 27 28 28 28 28 28 29 29 28 26 26 25 25 25 25 25 25 25 25 25 26 25 25 25 25 25 25 24 24 24 24 24
24 24 23 23 24 24 23 23 24 24 25 25 27 27 28 28 28 29 29 29 28 28 27 27 27 27 27 27 27 27 26 26 26 26 26 26 25 25 25 25 25 24 24
22 21 21 22 22 22 22 22 22 23 23 24 25 26 27 27 27 28 29 28 29 29 28 28 28 28 28 28 27 27 26 26 26 27 27 26 26 25 26 26 25 25 25
19 19 20 21 21 21 22 22 22 22 23 23 25 25 26 26 27 28 28 28 29 29 28 27 28 28 28 28 27 27 26 27 26 26 26 25 26 26 26 25 25 25 25
19 19 19 19 19 20 20 21 21 21 22 23 24 25 26 26 27 27 27 27 27 27 27 28 28 28 29 28 27 27 27 26 26 26 25 25 25 25 25 25 25 25 25
17 17 17 18 18 19 19 20 20 21 22 23 24 24 24 25 25 25 26 26 26 26 26 27 26 26 26 26 26 27 27 26 26 26 26 25 25 25 24 24 24 24 24
15 15 15 16 16 17 18 18 19 21 21 22 22 23 22 23 23 23 24 24 24 25 25 25 25 25 25 25 26 26 26 26 26 26 26 25 24 24 24 24 24 24 24
14 14 13 14 14 16 17 17 18 18 18 19 20 21 21 21 22 22 23 23 23 24 24 24 25 24 24 24 24 25 25 25 25 25 25 24 24 23 24 24 24 24 24
14 13 13 14 15 16 16 16 16 17 17 17 18 19 20 20 20 21 22 22 22 23 23 24 24 24 24 24 24 25 25 24 24 24 23 23 24 24 24 24 24 25 25
13 13 13 13 13 14 15 15 15 15 15 15 16 18 19 19 19 20 21 21 22 22 22 22 23 23 23 24 24 24 24 24 23 23 24 24 24 24 24 24 24 24 24
13 13 13 14 14 14 15 15 15 15 16 16 16 16 16 17 18 19 20 20 20 21 22 22 23 23 23 23 23 24 24 24 24 24 23 24 24 24 24 24 24 24 25
13 14 14 14 14 14 15 15 15 15 16 15 16 16 17 17 18 18 19 19 19 20 21 21 21 22 22 22 22 22 23 23 24 24 24 24 24 24 24 24 24 25 25
Wind_Direction
273 274 275 273 272 271 271 272 271 272 272 272 271 269 268 270 273 272 272 272 271 270 272 273 275 274 273 275 276 277 279 279 279 276 276 280 280 281 282 282 283 284 286
272 274 274 272 270 271 271 272 271 270 270 269 268 267 268 267 269 269 269 267 267 267 268 271 275 276 274 275 276 277 278 279 277 275 275 277 279 280 281 283 283 283 285
273 274 274 273 272 273 273 271 270 271 270 270 269 266 267 267 265 265 265 263 263 264 266 267 270 273 274 275 276 278 279 278 277 277 277 277 279 279 279 281 282 283 284
274 275 274 274 274 273 272 271 271 270 269 269 267 266 265 264 264 263 262 262 262 264 265 264 265 269 270 273 275 276 277 277 278 280 281 278 277 278 280 280 281 283 283
274 273 273 274 274 274 272 270 269 268 267 268 266 264 262 261 261 264 261 261 262 264 265 265 266 268 269 270 272 275 277 278 278 279 281 280 279 280 280 280 281 282 282
273 272 272 272 273 274 272 270 271 268 266 266 265 262 261 260 260 264 261 259 260 264 265 264 266 267 269 271 274 277 278 278 279 280 280 280 279 280 281 282 284 285 284
272 271 272 272 272 272 269 269 269 267 265 263 264 264 258 257 258 260 258 260 262 264 264 262 265 268 270 272 277 279 279 279 280 281 281 281 281 281 282 282 283 283 284
273 273 272 271 270 270 269 268 267 264 262 261 261 260 259 258 257 257 257 261 262 264 263 261 263 266 269 273 276 279 282 282 281 281 282 283 281 281 283 284 283 283 282
273 271 271 271 269 268 267 266 264 261 259 260 259 258 259 260 258 256 257 259 262 263 263 262 264 265 268 271 273 278 282 284 284 282 282 282 281 281 282 283 283 282 281
274 272 271 270 269 267 264 263 262 260 259 258 257 256 257 256 256 257 255 257 259 260 259 260 262 264 267 271 274 277 280 283 284 284 282 281 279 280 282 283 284 283 280
273 271 270 269 266 264 263 261 260 259 257 255 255 255 256 255 254 255 257 258 259 258 258 258 261 263 265 270 274 276 280 281 282 284 283 282 281 281 281 282 283 282 280
275 272 269 268 265 262 261 259 257 257 256 255 254 254 253 254 254 257 258 259 258 256 257 259 260 261 265 269 272 276 279 282 284 284 284 283 282 281 280 280 281 281 280
275 273 268 267 265 263 260 258 256 255 254 253 252 252 252 254 254 255 257 259 257 256 257 259 260 261 264 268 271 276 279 281 285 284 283 282 281 281 280 279 280 280 280
274 272 270 268 265 264 261 257 255 253 251 251 251 251 252 252 254 254 256 257 257 256 256 258 260 262 264 268 271 276 278 281 282 283 282 281 281 281 282 279 280 281 281
276 274 271 267 263 263 261 256 253 253 251 250 251 249 250 251 253 254 256 258 259 258 258 259 260 262 265 267 271 275 278 280 280 280 281 282 281 280 280 280 280 280 280
275 273 270 266 265 264 261 257 255 254 253 252 252 250 252 251 252 254 256 258 259 258 259 260 262 265 266 268 269 272 276 278 278 278 279 280 281 279 278 278 279 280 280
275 272 269 266 265 264 261 259 258 257 256 254 254 252 252 252 253 255 256 258 258 259 259 261 262 264 267 266 268 271 274 277 278 279 279 278 278 278 279 279 279 279 279
274 273 270 267 264 264 262 260 261 261 259 257 255 252 251 251 253 255 256 257 258 258 259 262 263 263 264 265 267 269 272 276 277 278 278 277 277 278 279 279 279 279 278
276 273 272 267 264 262 261 261 261 261 260 258 256 253 251 251 254 256 256 256 258 258 260 261 264 264 263 264 265 267 271 274 275 276 277 277 277 278 278 278 278 277 277
282 278 273 268 267 263 262 262 261 260 259 259 258 255 253 253 254 254 255 256 255 256 258 259 261 263 262 262 264 267 270 272 275 276 276 276 276 277 278 279 278 276 276
286 283 277 270 268 266 265 263 262 262 263 261 258 255 254 255 254 255 256 256 255 255 256 258 261 263 263 262 264 267 269 271 273 274 275 275 275 275 277 279 279 277 277
287 285 280 275 270 268 267 264 262 263 265 261 259 255 254 255 253 255 258 258 257 257 258 260 262 263 264 263 264 267 269 271 273 273 273 274 274 275 277 279 279 278 279
289 286 282 278 272 269 269 269 266 264 261 258 258 256 256 256 255 257 260 257 255 257 258 260 263 265 265 264 265 267 269 272 274 274 275 275 275 276 277 277 278 279 279
290 287 286 283 278 273 269 268 266 265 262 257 257 259 258 258 258 259 259 256 256 257 259 262 265 267 266 265 265 267 269 271 273 275 276 276 276 277 277 278 279 280 280
290 287 285 283 279 274 271 268 264 265 265 260 259 262 261 260 261 263 263 261 261 261 262 263 266 268 266 266 268 270 271 272 273 275 276 276 277 278 277 278 279 280 281
288 286 285 285 279 274 273 271 269 268 268 264 263 266 266 265 265 266 266 265 264 263 264 266 267 268 267 268 270 271 271 273 274 275 276 276 276 278 279 278 278 280 282
Height
5828 5828 5827 5827 5827 5827 5827 5827 5827 5827 5826 5826 5826 5826 5825 5825 5825 5825 5825 5825 5825 5825 5824 5824 5824 5823 5822 5822 5821 5821 5820 5819 5818 5817 5816 5815 5813 5812 5811 5810 5808 5807 5806
5821 5820 5820 5819 5819 5819 5819 5819 5819 5819 5819 5819 5818 5819 5819 5818 5818 5818 5818 5818 5818 5818 5819 5818 5818 5818 5817 5816 5816 5815 5814 5813 5813 5812 5811 5809 5808 5807 5806 5805 5803 5802 5801
5813 5812 5811 5811 5811 5811 5810 5810 5811 5811 5811 5811 5811 5811 5811 5811 5811 5811 5811 5811 5811 5812 5812 5812 5812 5812 5811 5811 5810 5809 5808 5808 5807 5806 5805 5804 5803 5802 5801 5800 5798 5797 5795
5804 5803 5802 5802 5802 5801 5801 5801 5801 5802 5802 5802 5802 5803 5804 5804 5804 5804 5804 5804 5804 5805 5805 5806 5806 5806 5806 5805 5804 5804 5803 5802 5801 5800 5800 5799 5798 5796 5795 5794 5793 5791 5790
5794 5794 5794 5794 5793 5792 5792 5792 5792 5793 5793 5794 5794 5795 5796 5796 5797 5797 5797 5797 5798 5798 5798 5799 5799 5799 5799 5799 5798 5798 5797 5796 5795 5794 5793 5792 5791 5790 5789 5787 5786 5785 5783
5785 5785 5785 5784 5784 5784 5782 5782 5783 5783 5784 5785 5786 5787 5788 5788 5789 5790 5790 5790 5791 5791 5792 5792 5793 5793 5793 5792 5792 5791 5791 5790 5789 5788 5787 5786 5785 5784 5782 5781 5779 5778 5777
5776 5775 5775 5775 5775 5775 5774 5774 5775 5775 5776 5777 5778 5778 5779 5781 5782 5782 5782 5783 5784 5784 5785 5785 5786 5786 5786 5785 5785 5785 5784 5783 5782 5781 5780 5779 5778 5777 5775 5774 5772 5771 5770
5766 5766 5765 5765 5765 5765 5765 5765 5766 5767 5768 5769 5770 5771 5772 5773 5774 5775 5775 5776 5777 5778 5778 5779 5779 5779 5779 5779 5778 5778 5777 5776 5775 5774 5773 5772 5771 5769 5768 5767 5765 5764 5763
5756 5756 5755 5755 5755 5755 5756 5756 5757 5758 5759 5760 5761 5763 5764 5765 5767 5768 5769 5769 5769 5770 5771 5772 5772 5772 5772 5772 5771 5771 5770 5769 5768 5766 5765 5764 5763 5762 5761 5760 5759 5757 5756
5746 5746 5745 5745 5745 5745 5746 5747 5748 5749 5750 5752 5753 5755 5756 5757 5759 5759 5760 5762 5762 5763 5764 5764 5765 5765 5765 5765 5764 5764 5763 5762 5761 5759 5758 5757 5756 5755 5754 5753 5752 5751 5750
5736 5736 5735 5735 5735 5735 5736 5737 5739 5740 5742 5743 5745 5747 5748 5750 5751 5752 5753 5754 5755 5755 5756 5757 5757 5758 5758 5758 5757 5757 5756 5755 5754 5753 5752 5751 5749 5748 5747 5746 5745 5744 5743
5727 5726 5726 5726 5725 5726 5726 5727 5729 5731 5733 5734 5736 5738 5740 5741 5743 5744 5745 5746 5747 5748 5749 5750 5750 5750 5751 5751 5750 5750 5749 5748 5747 5746 5745 5744 5743 5741 5740 5738 5737 5736 5735
5718 5717 5717 5716 5716 5716 5717 5718 5719 5721 5724 5726 5728 5730 5731 5733 5735 5736 5737 5738 5739 5740 5741 5742 5743 5743 5743 5744 5743 5743 5742 5741 5740 5739 5738 5737 5735 5734 5732 5731 5730 5729 5728
5708 5707 5707 5707 5707 5707 5708 5709 5710 5712 5714 5717 5719 5721 5722 5724 5726 5728 5729 5730 5731 5732 5733 5734 5735 5735 5736 5736 5736 5736 5735 5734 5733 5732 5730 5729 5728 5726 5725 5724 5723 5722 5721
5700 5699 5698 5698 5698 5699 5699 5699 5701 5703 5705 5708 5709 5711 5713 5716 5718 5719 5721 5722 5723 5724 5725 5725 5726 5727 5728 5728 5728 5728 5727 5726 5725 5724 5723 5722 5720 5719 5718 5716 5715 5715 5714
5692 5691 5691 5690 5690 5691 5692 5693 5694 5695 5697 5699 5701 5703 5705 5707 5708 5710 5712 5713 5714 5715 5716 5717 5718 5719 5719 5719 5720 5720 5719 5718 5717 5716 5715 5714 5712 5711 5710 5709 5708 5707 5706
5684 5684 5684 5683 5684 5684 5685 5686 5687 5688 5689 5691 5693 5695 5697 5698 5700 5701 5703 5704 5705 5706 5707 5708 5709 5710 5710 5710 5711 5711 5710 5709 5708 5707 5706 5705 5704 5703 5702 5701 5700 5699 5698
5678 5677 5677 5677 5677 5677 5678 5679 5680 5681 5682 5683 5685 5687 5688 5690 5691 5693 5694 5696 5697 5698 5699 5700 5700 5701 5701 5701 5702 5702 5701 5700 5699 5698 5697 5697 5696 5695 5694 5693 5692 5691 5690
5672 5671 5670 5670 5670 5670 5671 5672 5673 5674 5675 5676 5677 5678 5680 5682 5683 5684 5685 5687 5688 5689 5690 5691 5692 5692 5693 5693 5693 5693 5693 5692 5691 5690 5689 5689 5688 5687 5686 5685 5684 5683 5683
5666 5665 5664 5664 5664 5664 5664 5665 5666 5667 5667 5668 5669 5670 5672 5673 5675 5676 5677 5678 5679 5680 5681 5682 5683 5684 5684 5684 5684 5684 5684 5684 5683 5682 5681 5681 5680 5679 5678 5677 5676 5675 5675
5660 5659 5658 5658 5658 5658 5658 5659 5659 5659 5660 5660 5661 5662 5664 5665 5667 5668 5669 5670 5671 5672 5673 5674 5675 5676 5676 5676 5676 5676 5676 5675 5675 5674 5673 5672 5672 5671 5670 5669 5668 5668 5667
5655 5654 5653 5653 5652 5652 5652 5652 5652 5653 5653 5654 5655 5656 5657 5658 5659 5660 5661 5662 5663 5664 5665 5666 5667 5667 5667 5668 5668 5668 5668 5668 5667 5666 5665 5664 5664 5663 5662 5662 5661 5660 5659
5651 5650 5649 5648 5647 5647 5646 5646 5646 5646 5647 5648 5648 5649 5650 5651 5652 5653 5654 5655 5656 5657 5657 5658 5659 5659 5659 5660 5660 5660 5660 5660 5659 5658 5657 5657 5656 5656 5655 5654 5653 5653 5652
5646 5645 5644 5643 5642 5642 5641 5641 5641 5641 5642 5642 5642 5643 5643 5644 5645 5646 5647 5648 5649 5650 5650 5651 5651 5652 5652 5652 5652 5652 5652 5652 5651 5650 5649 5649 5648 5648 5647 5646 5646 5645 5644
5642 5641 5640 5639 5638 5637 5636 5636 5636 5636 5636 5636 5637 5637 5638 5638 5639 5640 5641 5641 5642 5643 5643 5644 5644 5644 5644 5645 5645 5645 5644 5644 5644 5643 5642 5641 5641 5640 5639 5638 5638 5637 5636
5638 5637 5636 5634 5633 5632 5632 5631 5631 5631 5631 5631 5631 5632 5632 5633 5633 5634 5634 5635 5635 5636 5636 5637 5637 5637 5637 5637 5637 5637 5637 5637 5636 5635 5634 5634 5633 5632 5631 5630 5630 5629 5628